Starlink 31446

operational
NORAD ID: 59315 Int'l Des: 2024-056 Owner: SPXS Country: US Constellation: starlink
LEOCIRCULAR

About Starlink 31446

Description loading...

Live Position

Loading 3D Globe...

Upcoming Passes

Altitude History

Altitude vs Time

uPlot chart will show altitude changes over time

Two-Line Element Set

1 59315U 24056V 25259.01691422 .00003012 00000-0 11887-3 0 9992
2 59315 43.0024 136.8860 0001185 271.6686 88.4030 15.27600770 84449
Epoch: Sep 16, 2025 • Age: 17 hours

Current Status

Altitude 483.5 km
Velocity 7.63 km/s
Sub-Earth Point 26.76°N, 98.32°W
Launch Date Mar 24, 2024
Age 1.4 years
Type internet

Technical Details

Classification Payload
Mass 730.00 kg
Dry Mass 700.00 kg
Total Mass 730.00 kg
Length 0.30 m
Diameter 4.10 m
Span 29.00 m
Shape Box + pan
Manufacturer SPXS
Bus Type Starlink V2M
Phase Status In Orbit
Owner/State SPXS/US

Large Constellations

Loading constellations...